STARLINK-35405 (66440 NORAD) Tracking and Keplerian Element Data

This shows tracking and keplerian element data for the satellite.

Feedback or suggestion? Click here.




ElementValue
Catalog66440
NameSTARLINK-35405
Epoch Orbit721
Epoch Day353.51658554
Epoch Year2025
RAAN8.5247
Inclination42.9998
Eccentricity8.06E-05
Argument of Perigee26.6821
Mean Anonmoly333.4077
Mean Motion15.40724205
Decay Rate0.00032909
L11 66440U 25259U 25353.51658554 .00032909 00000+0 79104-3 0 9996
L22 66440 42.9998 8.5247 0000806 26.6821 333.4077 15.40724205 7215



Live tracking and technical data element details for STARLINK-35405 (NORAD 66440). STARLINK-35405 can be tracked NOW for your location showing map with azimuth and elevation plus other details from your city location.







IsCatalogInMostPopularTable: catalog: 66440, numindb: 3
Update: records affected: 1



GetName: 66440 STARLINK-35405

Hit Count: updated at: Sun, 08 Feb 2026 07:12:18 GMT